When you browse on this site, cookies collect data to enhance your experience and personalize the content and advertising you see.
Visit our Privacy Policy to learn more. By continuing to use the site, you agree to this use of cookies and data.
  • In Lithuania
  • List of Countries
  • For 7 days
  • Water Temperature
  • Weather Map
  • Weather Widgets
  • user-avatar
    Login

    Hourly Weather Svitavy

    Today, 16 September, Monday

    Time Temperature Precipitation Wind Pressure Humidity
    00:00 +14°C° 0 mm 1 mps 725 mmHg 87%
    01:00 +14°C° 0 mm 1 mps 725 mmHg 90%
    02:00 +14°C° 0 mm 1 mps 725 mmHg 91%
    03:00 +13°C° 0 mm 1 mps 725 mmHg 92%
    04:00 +13°C° 0 mm 1 mps 725 mmHg 93%
    05:00 +14°C° 0 mm 1 mps 725 mmHg 90%
    06:00 +14°C° 0 mm 1 mps 725 mmHg 87%
    07:00 +15°C° 0 mm 1 mps 725 mmHg 85%
    08:00 +16°C° 0 mm 2 mps 725 mmHg 80%
    09:00 +17°C° 0 mm 2 mps 725 mmHg 76%
    10:00 +18°C° 0 mm 3 mps 725 mmHg 72%
    11:00 +18°C° 0 mm 3 mps 725 mmHg 71%
    12:00 +18°C° 0 mm 3 mps 725 mmHg 70%
    13:00 +18°C° 0 mm 3 mps 724 mmHg 69%
    14:00 +18°C° 0 mm 3 mps 724 mmHg 69%
    15:00 +18°C° 0 mm 3 mps 724 mmHg 70%
    16:00 +18°C° 0 mm 2 mps 723 mmHg 71%
    17:00 +17°C° 0.1 mm 2 mps 723 mmHg 76%
    18:00 +16°C° 0.1 mm 1 mps 723 mmHg 81%
    19:00 +15°C° 0.1 mm 1 mps 723 mmHg 86%
    20:00 +15°C° 0.4 mm 1 mps 723 mmHg 89%
    21:00 +14°C° 0.4 mm 1 mps 723 mmHg 91%
    22:00 +14°C° 0.4 mm 1 mps 723 mmHg 94%
    23:00 +14°C° 0.3 mm 2 mps 723 mmHg 95%

    Tomorrow, 17 September, Tuesday

    Time Temperature Precipitation Wind Pressure Humidity
    00:00 +14°C° 0.3 mm 2 mps 723 mmHg 95%
    01:00 +14°C° 0.3 mm 2 mps 723 mmHg 95%
    02:00 +13°C° 0.2 mm 3 mps 722 mmHg 95%
    03:00 +12°C° 0.2 mm 3 mps 722 mmHg 94%
    04:00 +11°C° 0.2 mm 3 mps 722 mmHg 93%
    05:00 +11°C° 0 mm 4 mps 722 mmHg 92%
    06:00 +10°C° 0 mm 4 mps 722 mmHg 90%
    07:00 +9°C° 0 mm 5 mps 722 mmHg 88%
    08:00 +10°C° 0 mm 5 mps 723 mmHg 83%
    09:00 +12°C° 0 mm 5 mps 723 mmHg 78%
    10:00 +13°C° 0 mm 6 mps 723 mmHg 72%
    11:00 +13°C° 0 mm 6 mps 723 mmHg 69%
    12:00 +13°C° 0 mm 6 mps 722 mmHg 67%
    13:00 +14°C° 0 mm 7 mps 722 mmHg 64%
    14:00 +13°C° 0 mm 6 mps 722 mmHg 64%
    15:00 +13°C° 0 mm 6 mps 721 mmHg 65%
    16:00 +13°C° 0 mm 6 mps 721 mmHg 65%
    17:00 +12°C° 0 mm 5 mps 721 mmHg 67%
    18:00 +10°C° 0 mm 5 mps 721 mmHg 69%
    19:00 +10°C° 0 mm 4 mps 721 mmHg 71%
    20:00 +8°C° 0 mm 5 mps 722 mmHg 72%
    21:00 +8°C° 0 mm 7 mps 722 mmHg 72%
    22:00 +7°C° 0 mm 8 mps 723 mmHg 73%
    23:00 +6°C° 0 mm 7 mps 723 mmHg 74%

    Day after tomorrow, 18 September, Wednesday

    Time Temperature Precipitation Wind Pressure Humidity
    00:00 +5°C° 0 mm 7 mps 724 mmHg 76%
    01:00 +4°C° 0 mm 7 mps 724 mmHg 77%
    02:00 +4°C° 0 mm 6 mps 724 mmHg 79%
    03:00 +3°C° 0 mm 6 mps 725 mmHg 82%
    04:00 +3°C° 0 mm 6 mps 725 mmHg 84%
    05:00 +3°C° 0 mm 6 mps 726 mmHg 83%
    06:00 +3°C° 0 mm 6 mps 726 mmHg 83%
    07:00 +3°C° 0 mm 6 mps 726 mmHg 82%
    08:00 +6°C° 0 mm 5 mps 727 mmHg 75%
    09:00 +7°C° 0 mm 5 mps 727 mmHg 69%
    10:00 +9°C° 0 mm 5 mps 727 mmHg 62%
    11:00 +9°C° 0 mm 5 mps 727 mmHg 60%
    12:00 +10°C° 0 mm 6 mps 727 mmHg 58%
    13:00 +11°C° 0 mm 6 mps 727 mmHg 56%
    14:00 +11°C° 0 mm 6 mps 727 mmHg 57%
    15:00 +10°C° 0 mm 6 mps 726 mmHg 59%
    16:00 +10°C° 0 mm 6 mps 726 mmHg 60%
    17:00 +8°C° 0 mm 4 mps 726 mmHg 66%
    18:00 +8°C° 0 mm 3 mps 727 mmHg 71%
    19:00 +7°C° 0 mm 2 mps 727 mmHg 77%
    20:00 +6°C° 0 mm 2 mps 727 mmHg 80%
    21:00 +6°C° 0 mm 2 mps 727 mmHg 82%
    22:00 +5°C° 0 mm 2 mps 728 mmHg 84%
    23:00 +5°C° 0 mm 2 mps 728 mmHg 86%

    19 September, Thursday

    Time Temperature Precipitation Wind Pressure Humidity
    00:00 +4°C° 0 mm 2 mps 728 mmHg 87%
    01:00 +5°C° 0 mm 1 mps 728 mmHg 88%
    02:00 +5°C° 0 mm 1 mps 728 mmHg 88%
    03:00 +5°C° 0 mm 1 mps 728 mmHg 88%
    04:00 +5°C° 0 mm 1 mps 728 mmHg 88%
    05:00 +4°C° 0 mm 2 mps 728 mmHg 87%
    06:00 +5°C° 0 mm 2 mps 728 mmHg 86%
    07:00 +4°C° 0 mm 3 mps 728 mmHg 85%
    08:00 +7°C° 0 mm 3 mps 729 mmHg 78%
    09:00 +7°C° 0 mm 4 mps 729 mmHg 70%
    10:00 +10°C° 0 mm 4 mps 730 mmHg 63%
    11:00 +10°C° 0 mm 4 mps 730 mmHg 61%
    12:00 +11°C° 0 mm 4 mps 730 mmHg 59%
    13:00 +12°C° 0 mm 4 mps 730 mmHg 57%
    14:00 +11°C° 0 mm 4 mps 730 mmHg 58%
    15:00 +11°C° 0 mm 4 mps 730 mmHg 59%
    16:00 +11°C° 0 mm 4 mps 730 mmHg 60%
    17:00 +10°C° 0 mm 3 mps 730 mmHg 66%
    18:00 +8°C° 0 mm 3 mps 730 mmHg 73%
    19:00 +6°C° 0 mm 2 mps 730 mmHg 79%
    20:00 +6°C° 0 mm 2 mps 731 mmHg 81%
    21:00 +6°C° 0 mm 2 mps 731 mmHg 83%
    22:00 +6°C° 0 mm 1 mps 731 mmHg 85%
    23:00 +6°C° 0 mm 1 mps 731 mmHg 86%

    20 September, Friday

    Time Temperature Precipitation Wind Pressure Humidity
    00:00 +6°C° 0 mm 1 mps 731 mmHg 86%
    01:00 +5°C° 0 mm 1 mps 731 mmHg 87%
    02:00 +5°C° 0 mm 1 mps 731 mmHg 88%
    03:00 +5°C° 0 mm 1 mps 731 mmHg 89%
    04:00 +4°C° 0 mm 1 mps 731 mmHg 89%
    05:00 +5°C° 0 mm 1 mps 732 mmHg 87%
    06:00 +6°C° 0 mm 1 mps 732 mmHg 84%
    07:00 +6°C° 0 mm 1 mps 732 mmHg 81%
    08:00 +8°C° 0 mm 1 mps 732 mmHg 72%
    09:00 +10°C° 0 mm 1 mps 733 mmHg 63%
    10:00 +12°C° 0 mm 1 mps 733 mmHg 54%
    11:00 +13°C° 0 mm 1 mps 733 mmHg 49%
    12:00 +13°C° 0 mm 1 mps 733 mmHg 45%
    13:00 +14°C° 0 mm 1 mps 732 mmHg 40%
    14:00 +14°C° 0 mm 1 mps 732 mmHg 41%
    15:00 +14°C° 0 mm 1 mps 732 mmHg 43%
    16:00 +14°C° 0 mm 1 mps 732 mmHg 44%
    17:00 +12°C° 0 mm 1 mps 732 mmHg 50%
    18:00 +10°C° 0 mm 1 mps 732 mmHg 57%
    19:00 +8°C° 0 mm 1 mps 732 mmHg 63%
    20:00 +7°C° 0 mm 1 mps 732 mmHg 66%
    21:00 +7°C° 0 mm 1 mps 732 mmHg 68%
    22:00 +6°C° 0 mm 1 mps 732 mmHg 71%
    23:00 +6°C° 0 mm 1 mps 732 mmHg 71%

    21 September, Saturday

    Time Temperature Precipitation Wind Pressure Humidity
    00:00 +6°C° 0 mm 1 mps 732 mmHg 71%
    01:00 +6°C° 0 mm 1 mps 732 mmHg 72%
    02:00 +6°C° 0 mm 1 mps 732 mmHg 72%
    03:00 +6°C° 0 mm 1 mps 732 mmHg 72%
    04:00 +5°C° 0 mm 1 mps 732 mmHg 73%
    05:00 +6°C° 0 mm 1 mps 732 mmHg 72%
    06:00 +7°C° 0 mm 1 mps 732 mmHg 71%
    07:00 +6°C° 0 mm 2 mps 732 mmHg 71%
    08:00 +8°C° 0 mm 2 mps 732 mmHg 64%
    09:00 +10°C° 0 mm 3 mps 732 mmHg 57%
    10:00 +12°C° 0 mm 4 mps 732 mmHg 50%
    11:00 +13°C° 0 mm 4 mps 732 mmHg 47%
    12:00 +14°C° 0 mm 4 mps 731 mmHg 45%
    13:00 +15°C° 0 mm 5 mps 731 mmHg 43%
    14:00 +14°C° 0 mm 5 mps 731 mmHg 44%
    15:00 +14°C° 0 mm 4 mps 730 mmHg 45%
    16:00 +14°C° 0 mm 4 mps 730 mmHg 46%
    17:00 +13°C° 0 mm 4 mps 730 mmHg 49%
    18:00 +11°C° 0 mm 4 mps 730 mmHg 53%
    19:00 +8°C° 0 mm 4 mps 730 mmHg 57%
    20:00 +8°C° 0 mm 4 mps 730 mmHg 56%
    21:00 +8°C° 0 mm 4 mps 730 mmHg 56%
    22:00 +7°C° 0 mm 4 mps 730 mmHg 56%
    23:00 +7°C° 0 mm 4 mps 729 mmHg 56%
    Show more